Houston, TX

7:20 AM CST on December 11, 2016 (GMT -0600)
Ellington

Weather History for KEFD - February, 2013

Change the Weather History Date:

Sunday, February 24, 2013

  Actual Average Record
Temperature  
Mean Temperature 59 °F -  
Max Temperature 68 °F 66 °F 80 °F (2007)
Min Temperature 50 °F 48 °F 33 °F (2015)
Degree Days  
Heating Degree Days 6    
Growing Degree Days 9 (Base 50)    
Moisture  
Dew Point 53 °F    
Average Humidity 77    
Maximum Humidity 94    
Minimum Humidity 60    
Precipitation  
Precipitation 0.00 in - - ()
Sea Level Pressure  
Sea Level Pressure 29.85 in    
Wind  
Wind Speed 5 mph (East)    
Max Wind Speed 16 mph    
Max Gust Speed -    
Visibility 10 miles    
Events      
Averages and records for this station are not official NWS values.
T = Trace of Precipitation, MM = Missing Value Source: NWS Daily Summary

Daily Weather History Graph

Daily Weather History Graph

Search for Another Location

Airport or City:

Trip Planner

Search our weather history database for the weather conditions in past years. The results will help you decide how hot, cold, wet, or windy it might be!

Date:

Astronomy

Feb. 24, 2013 Rise Set
Actual Time 6:51 AM CST 6:16 PM CST
Civil Twilight 6:27 AM CST 6:40 PM CST
Nautical Twilight 5:59 AM CST 7:08 PM CST
Astronomical Twilight 5:31 AM CST 7:36 PM CST
Moon 5:28 PM CST (2/24) 5:47 AM CST (2/24)
Length of Visible Light 12h 13m
Length of Day
11h 25m
Waxing Gibbous, 99% of the Moon is Illuminated
Feb 24
Waxing Gibbous
Feb 25
Full
Mar 4
Last Quarter
Mar 11
New
Mar 19
First Quarter

Hourly Weather History & Observations

Time (CST) Temp. Dew Point Humidity Pressure Visibility Wind Dir Wind Speed Gust Speed Precip Events Conditions
12:50 AM 55.4 °F 44.6 °F 67% 29.96 in 10.0 mi Calm Calm - N/A   Partly Cloudy
1:50 AM 55.4 °F 44.6 °F 67% 29.94 in 10.0 mi Calm Calm - N/A   Partly Cloudy
3:50 AM 50.0 °F 44.6 °F 82% 29.89 in 10.0 mi Calm Calm - N/A   Clear
4:50 AM 50.0 °F 44.6 °F 82% 29.89 in 10.0 mi Calm Calm - N/A   Clear
5:50 AM 51.8 °F 50.0 °F 94% 29.91 in 10.0 mi ENE 3.5 mph - N/A   Clear
6:50 AM 51.8 °F 50.0 °F 94% 29.91 in 10.0 mi East 4.6 mph - N/A   Partly Cloudy
7:50 AM 55.4 °F 53.6 °F 94% 29.94 in 10.0 mi NE 4.6 mph - N/A   Scattered Clouds
8:50 AM 59.0 °F 55.4 °F 88% 29.95 in 10.0 mi East 8.1 mph - N/A   Scattered Clouds
9:50 AM 60.8 °F 55.4 °F 82% 29.95 in 10.0 mi North 9.2 mph - N/A   Scattered Clouds
10:50 AM 62.6 °F 55.4 °F 77% 29.94 in 10.0 mi East 16.1 mph - N/A   Mostly Cloudy
11:50 AM 66.2 °F 55.4 °F 68% 29.91 in 10.0 mi ESE 12.7 mph - N/A   Mostly Cloudy
12:50 PM 66.2 °F 53.6 °F 64% 29.88 in 10.0 mi East 11.5 mph - N/A   Mostly Cloudy
1:50 PM 68.0 °F 53.6 °F 60% 29.84 in 10.0 mi East 15.0 mph - N/A   Mostly Cloudy
2:50 PM 66.2 °F 53.6 °F 64% 29.81 in 10.0 mi East 13.8 mph - N/A   Mostly Cloudy
3:05 PM 66.2 °F 53.6 °F 64% 29.79 in 10.0 mi East 11.5 mph - N/A   Mostly Cloudy
4:50 PM 66.2 °F 53.6 °F 64% 29.77 in 10.0 mi ESE 10.4 mph - N/A   Overcast
5:50 PM 64.4 °F 53.6 °F 68% 29.77 in 10.0 mi ESE 6.9 mph - N/A   Overcast
6:50 PM 62.6 °F 53.6 °F 72% 29.76 in 10.0 mi ESE 8.1 mph - N/A   Overcast
7:50 PM 62.6 °F 55.4 °F 77% 29.75 in 10.0 mi East 9.2 mph - N/A   Overcast
8:50 PM 60.8 °F 57.2 °F 88% 29.73 in 10.0 mi East 9.2 mph - N/A   Overcast
9:50 PM 62.6 °F 59.0 °F 88% 29.74 in 9.0 mi East 8.1 mph - N/A   Overcast
10:50 PM 62.6 °F 59.0 °F 88% 29.72 in 8.0 mi East 8.1 mph - N/A   Overcast
11:50 PM 62.6 °F 59.0 °F 88% 29.69 in 7.0 mi East 8.1 mph - N/A   Overcast